Flag for Canada Weather past 2 weeks in Rankin Inlet, Nunavut Territory, Canada

Now
-27 °F

Light snow. Sunny.


Feels Like: -59 °F
Forecast: N/A
Wind: 22 mph from Northwest

Location: Rankin Inlet

Current Time: Jan 28, 2015 at 3:09:23 PM

Latest Report: Jan 28, 2015 at 2:00 PM


Visibility: 0 mi

Pressure: 30.09 "Hg

Humidity: 67%

Dew point: -35 °F

Location of Rankin InletLocation

Historic Weather in Rankin Inlet — Graph

°F

Rankin Inlet temperature yesterday

Maximum temperature yesterday: -4 °F (at 12:00 AM)
Minimum temperature yesterday: -11 °F (at 8:00 AM)
Average temperature yesterday: -9 °F

Past Weeks' High & Low Weather Summary

 TemperatureHumidityPressure
High-4 °F (Jan 27, 12:00 AM)84% (Jan 26, 6:00 PM)30.29 "Hg (Jan 26, 6:00 PM)
Low-42 °F (Jan 18, 7:00 AM)58% (Jan 17, 11:00 PM)29.50 "Hg (Jan 27, 4:00 AM)
Average-26 °F68%29.95 "Hg
* Reported Jan 13 2:00 PM — Jan 28 2:00 PM, Rankin Inlet, Weather by CustomWeather, © 2014

Note: Actual official high and low records may vary slightly from our data, if they occured in-between our weather recording intervals... More about our weather records

Advertising

Rankin Inlet weather history for previous 24 hours

 ConditionsComfort  
Time TempWeatherWind HumidityBarometerVisibility
2:00 PM
Jan 28
-27 °FSnow flurries. Sunny.22 mph67%30.09 "Hg1 mi
1:00 PM-27 °FSnow flurries. Sunny.25 mph67%30.07 "Hg0 mi
12:00 PM-27 °FSnow flurries. Sunny.30 mph67%30.06 "Hg0 mi
11:00 AM-27 °FSnow flurries. Sunny.30 mph67%30.06 "Hg0 mi
10:00 AM-27 °FBlizzard. Sunny.26 mph67%30.04 "Hg0 mi
9:00 AM-26 °FLight snow. Overcast.28 mph67%30.03 "Hg0 mi
8:00 AM-26 °FBlizzard. Overcast.32 mph75%30.01 "Hg0 mi
7:00 AM-24 °FBlizzard. Overcast.35 mph68%29.98 "Hg0 mi
6:00 AM-22 °FLight snow. Overcast.35 mph75%29.96 "Hg0 mi
5:00 AM-17 °FBlizzard. Overcast.32 mph69%29.93 "Hg0 mi
4:00 AM-17 °FBlizzard. Overcast.37 mph76%29.90 "Hg0 mi
3:00 AM-15 °FLight snow. Overcast.38 mph69%29.87 "Hg0 mi
2:00 AM-15 °FLight snow. Overcast.38 mph76%29.85 "Hg0 mi
1:00 AM-13 °FLight snow. Overcast.38 mph69%29.83 "Hg0 mi
12:00 AM-11 °FLight snow. Overcast.37 mph76%29.80 "Hg0 mi
11:00 PM
Jan 27
-9 °FLight snow. Overcast.31 mph70%29.77 "Hg0 mi
10:00 PM-9 °FLight snow. Overcast.29 mph70%29.75 "Hg0 mi
9:00 PM-9 °FLight snow. Overcast.24 mph70%29.74 "Hg0 mi
8:00 PM-11 °FLight snow. Passing clouds.29 mph76%29.72 "Hg0 mi
7:00 PM-9 °FLight snow. Overcast.25 mph77%29.69 "Hg1 mi
6:00 PM-9 °FLight snow. Passing clouds.22 mph77%29.67 "Hg2 mi
5:00 PM-9 °FLight snow. Passing clouds.22 mph70%29.64 "Hg2 mi
4:00 PM-9 °FLight snow. Passing clouds.20 mph70%29.62 "Hg2 mi
3:00 PM-9 °FLight snow. Partly sunny.17 mph77%29.61 "Hg4 mi
Weather by CustomWeather, © 2014

See weather overviewHow to use our weather pages